Preview of NWS' New Version of Forecast
This preview is not operational and should not be used for support decisions.

Regional Weather Roundup (RWR)

Issued by National Weather Service (NWS)

                            
000
ASUS43 KMKX 180710
RWRWI 

WISCONSIN REGIONAL WEATHER ROUNDUP
NATIONAL WEATHER SERVICE MILWAUKEE/SULLIVAN WI
200 AM CDT THU APR 18 2019

NOTE: "FAIR" INDICATES FEW OR NO CLOUDS BELOW 12,000 FEET WITH NO
SIGNIFICANT WEATHER AND/OR OBSTRUCTIONS TO VISIBILITY.

WIZ001-002-006>008-014>016-023>028-180800-
NORTHWEST WISCONSIN
  
CITY           SKY/WX    TMP DP  RH WIND       PRES   REMARKS
SUPERIOR ARPT  CLOUDY    39  36  87 N8        29.73S WCI  34          
ASHLAND        NOT AVBL                                               
HAYWARD        CLOUDY    37  35  92 N10G17    29.65R WCI  30          
SIREN          CLOUDY    37  36  99 N10G16    29.70R FOG     WCI  29  
CUMBERLAND     CLOUDY    36  34  93 N14G23    29.65R WCI  27          
RICE LAKE      CLOUDY    37  32  80 N9        29.65R WCI  31          
CHETEK         CLOUDY    37  37  99 N12G18    29.64R WCI  29          
LADYSMITH      CLOUDY    38  37  97 N14       29.62R WCI  29          
EAU CLAIRE     CLOUDY    40  38  93 N10       29.61R WCI  33          
MENOMONIE      CLOUDY   N/A N/A N/A NW12      29.64R                  
NEW RICHMOND   CLOUDY    39  38  96 N12G21    29.67R WCI  31          
OSCEOLA        CLOUDY    39  37  93 N14       29.71R WCI  31          
$$
 
WIZ003>005-009-010-017-018-180800-
NORTH CENTRAL WISCONSIN
  
CITY           SKY/WX    TMP DP  RH WIND       PRES   REMARKS
MANITOWISH WTR CLOUDY    36  36 100 N7        29.56R FOG     WCI  30  
ARBOR VITAE    CLOUDY    39  38  94 N9        29.55R WCI  33          
WOODRUFF       CLOUDY    39  38  94 N9        29.55R WCI  33          
RHINELANDER    CLOUDY    40  36  86 N3        29.51S                  
EAGLE RIVER    CLOUDY    36  36 100 NE8       29.52S WCI  30          
LAND O LAKES   CLOUDY    36  36 100 NE6       29.55S FOG     WCI  32  
PHILLIPS       CLOUDY    36  36 100 N7        29.57R WCI  30          
TOMAHAWK       CLOUDY    37  36  96 NW5       29.54R FOG     WCI  33  
MEDFORD        DRIZZLE   37  37  98 NW9       29.54R WCI  30          
MERRILL        CLOUDY    38  38 100 NW5       29.53R WCI  35          
$$
 
WIZ029-030-035-036-043>047-180800-
CENTRAL WISCONSIN
  
CITY           SKY/WX    TMP DP  RH WIND       PRES   REMARKS
WAUSAU         CLOUDY    39  39 100 CALM      29.50R                  
MOSINEE        CLOUDY    39  39 100 N5        29.52R FOG              
MARSHFIELD       N/A     40  32  73 N8        29.52R HAZE    WCI  34  
STEVENS POINT  CLOUDY    40  40 100 N5        29.52R FOG              
WAUPACA        CLOUDY    46  45  97 NW3       29.51R FOG              
WAUTOMA        CLOUDY    46  45  96 W17G24    29.51S FOG              
WISC RAPIDS    CLOUDY    43  39  86 NW7       29.54R FOG              
CAMP DOUGLAS   CLOUDY    44  44 100 W8        29.54R                  
$$
 
WIZ011>013-019>022-031-037>040-048>050-180800-
NORTHEAST WISCONSIN
  
CITY           SKY/WX    TMP DP  RH WIND       PRES   REMARKS
ANTIGO         CLOUDY    37  37 100 N5        29.50F FOG     WCI  33  
SHAWANO        CLOUDY    45  42  91 N7        29.50R FOG              
OCONTO         CLOUDY    42  41  98 N6        29.48S                  
STURGEON BAY   CLOUDY    39  39 100 NW7       29.47S FOG     WCI  34  
GREEN BAY      CLOUDY    44  42  93 NW7       29.49R FOG              
MANITOWOC      CLOUDY    48  47  96 SW6       29.47R FOG              
APPLETON       FOG       43  43 100 NW8       29.48R VSB 1            
CLINTONVILLE   CLOUDY    44  42  95 CALM      29.51R FOG              
OSHKOSH        CLOUDY    49  47  93 W8G21     29.48R FOG              
$$
 
WIZ032>034-041-042-053>061-180800-
SOUTHWEST WISCONSIN
  
CITY           SKY/WX    TMP DP  RH WIND       PRES   REMARKS
LA CROSSE      CLOUDY    47  42  83 NW13      29.58S                  
SPARTA         CLOUDY    42  42 100 CALM      29.57S                  
VIROQUA        CLOUDY    46  46 100 NW12G22   29.56S                  
BOSCOBEL       CLOUDY    52  45  77 W10       29.57F                  
PRAIRIE DU CHI CLOUDY    49  43  80 W13       29.57F                  
PLATTEVILLE    CLOUDY    50  50  98 W13       29.57F                  
$$

WIZ056-057-062-063-064-067-068-180800-
SOUTH CENTRAL WISCONSIN
  
CITY           SKY/WX    TMP DP  RH WIND       PRES   REMARKS
REEDSBURG      CLOUDY    51  50  99 NW13G21   29.52F                  
BARABOO/DELLS  CLOUDY    51  48  89 NW10G16   29.52S FOG              
LONE ROCK      CLOUDY    52  47  83 W13G22    29.55F                  
MINERAL POINT  CLOUDY    52  52 100 W13       29.54F                  
MADISON        CLOUDY    56  51  84 W7G18     29.53R                  
MIDDLETON      CLOUDY    55  51  86 W16       29.54R                  
WATERTOWN      CLOUDY    58  57  96 W10       29.51S                  
MONROE         CLOUDY    53  48  83 MISG      29.55F                  
JANESVILLE     CLOUDY    57  52  82 W15       29.55S                  
$$
 
WIZ051-052-058>065-066-070>072-180800-
SOUTHEAST WISCONSIN
  
CITY           SKY/WX    TMP DP  RH WIND       PRES   REMARKS
MILWAUKEE      MOCLDY    66  57  72 W17G28    29.50R                  
WAUKESHA       CLOUDY    59  55  88 W10       29.52S                  
MILWAUKEE/TIMM CLOUDY    61  54  77 W15G21    29.51R                  
RACINE         FAIR      65  56  72 SW13G25   29.51R                  
KENOSHA        FAIR      64  58  80 W16       29.51S                  
FOND DU LAC    LGT RAIN  51  49  92 W9        29.49S FOG              
SHEBOYGAN      CLOUDY    59  54  83 W14       29.47R                  
WEST BEND      CLOUDY    59  55  88 W9        29.49R                  
JUNEAU         CLOUDY    56  54  91 SW13      29.51S                  
$$

LSZ147-162-180800-
LAKE SUPERIOR
  
STATION/POSITION TIME  TEMP    WIND        PRES    WAVE
                       AIR SEA DIR/SP/G            HT/PER
                 (UTC) (F)     (DEG/KT/KT) (MB)    (FT/S)
$$
 
LMZ867-665-643>646-180800-
LAKE MICHIGAN
  
STATION/POSITION TIME  TEMP    WIND        PRES    WAVE
                       AIR SEA DIR/SP/G            HT/PER
                 (UTC) (F)     (DEG/KT/KT) (MB)    (FT/S)
NORTHPORT PIER   0640   38      10/  2/  3  998.0S
KEWAUNEE LAKESHO 0648   41      CALM  /  3  997.2R
SHEBOYGAN LAKESH 0700   60     250/ 11/ 14  998.0R
MILWAUKEE LAKESH 0630   65                   N/A
KENOSHA   LAKESH 0700   66     250/ 13/ 22  999.7
$$

TC  - TEMPERATURE IN CELSIUS
VSB - VISIBILITY IN STATUTE MILES
WCI - WIND CHILL INDEX
HX  - HEAT INDEX